www.pogodaiklimat.ru

Погода и климат >> Архив погоды >> Германия >> Гельголанд


ПОГОДА в Гельголанде

  • Прогноз погоды в Гельголанде
  • Монитор погоды в Гельголанде

АРХИВ ПОГОДЫ в Гельголанде

Время (UTC), дата Ветер
(напр.,м/с)
 
Видим.   Явления Облачность Т
(С)
Тd
(С)
f
(%)
Тe
(С)
Тes
(С)
Комфортность P
(гПа)
Po
(гПа)
Тmin
(С)
Tmax
(С)
R
(мм)
R24
(мм)
S
(см)
10 11.07 6000 м дымка 10/10 960 м
[]
+16.1 +13.7 86 1012.4 1012.0
11 11.07 6000 м дымка 10/10 660 м
[]
+16.9 +14.4 85 1012.0 1011.6
12 11.07 6000 м дымка 10/10 1300 м
[]
+16.9 +14.7 87 1011.8 1011.4
13 11.07 5000 м в посл. час дождь 9/9 480 м
[]
+17.1 +15.2 89 1011.7 1011.3
14 11.07 7000 м в посл. час морось {дымка} 9/9 480 м
[]
+17.7 +15.5 87 1011.6 1011.2
15 11.07 7000 м дымка {дождь} 10/10 420 м
[]
+17.7 +15.4 86 1011.4 1011.0 0.0
16 11.07 3400 м слаб. морось с дождем {дымка} 9/9 480 м
[]
+17.2 +16.0 93 1011.3 1010.9
17 11.07 4600 м в посл. час дождь {морось} 10/10 400 м
[]
+17.0 +15.8 93 1011.2 1010.8
18 11.07 10 км в посл. час дождь {морось} 10/0
[]
+16.7 +15.3 91 1011.1 1010.7 +15.0 +18.4 0.3
19 11.07 5000 м 10/10 1500 м
[]
+16.6 +15.5 93 1010.8 1010.4
20 11.07 6000 м слаб. морось {дождь} 10/0 2000 м
[]
+16.5 +15.4 93 1010.8 1010.4
21 11.07 18 км 10/10 870 м
[]
+16.3 +15.0 92 1010.9 1010.5 0.0
22 11.07 4500 м дождь 9/9 570 м
[]
+15.7 +14.8 94 1011.0 1010.6
23 11.07 16 км слаб. морось {дождь} 10/10 150 м
[]
+16.0 +14.9 93 1010.6 1010.2
00 12.07 3500 м дождь 9/9 200 м
[]
+15.6 +14.5 93 1010.3 1009.9 5
01 12.07 24 км слаб. дождь {морось} 10/10 240 м
[]
+15.4 +14.3 93 1010.1 1009.7
02 12.07 7000 м слаб. морось {дождь} 9/9 150 м
[]
+15.4 +14.4 94 1009.8 1009.4
03 12.07 30 км {дождь, морось} 10/10 150 м
[]
+15.4 +14.3 93 1009.6 1009.2 3
04 12.07 14 км слаб. морось 10/10 150 м
[]
+15.0 +14.2 95 1009.6 1009.2
05 12.07 12 км слаб. дождь {морось} 10/10 120 м
[]
+15.4 +14.3 93 1009.7 1009.3
06 12.07 15 км слаб. дождь {морось} 10/10 100 м
[]
+15.5 +14.3 93 1009.8 1009.4 +14.9 +16.7 8
07 12.07 27 км слаб. морось с дождем 10/10 240 м
[]
+15.5 +14.3 93 1010.0 1009.6
08 12.07 25 км слаб. морось с дождем 10/10 180 м
[]
+15.6 +14.3 92 1010.2 1009.8
09 12.07 18 км слаб. морось с дождем 10/10 180 м
[]
+15.4 +14.3 93 1010.2 1009.8 0.2
10 12.07 9000 м морось {дождь} 9/9 120 м
[]
+15.5 +14.6 94 1010.4 1010.0
11 12.07 45 км 10/10 210 м
[]
+16.3 +14.0 86 1010.5 1010.1
12 12.07 65 км 10/10 180 м
[]
+17.4 +14.6 84 1010.4 1010.0 0.1
13 12.07 40 км 9/9 240 м
[]
+17.3 +13.9 80 1010.4 1010.0
14 12.07 55 км 9/9 240 м
[]
+17.2 +14.1 82 1010.5 1010.1
15 12.07 25 км 10/10 240 м
[]
+16.3 +13.7 85 1010.8 1010.4
16 12.07 29 км 10/10 270 м
[]
+16.4 +13.7 84 1010.9 1010.5
17 12.07 50 км 10/10 270 м
[]
+15.9 +13.5 86 1011.1 1010.7
18 12.07 45 км в посл. час дождь со снегом {морось} 10/10 200 м
[]
+15.7 +13.6 87 1011.1 1010.7 +15.2 +17.7 0.0
19 12.07 45 км 10/10 240 м
[]
+15.7 +13.6 87 1011.6 1011.2
20 12.07 27 км 10/10 210 м
[]
+15.4 +13.7 90 1012.0 1011.6
21 12.07 10 км {дождь} 10/10 300 м
[]
+15.7 +14.0 90 1012.4 1012.0 0.0
22 12.07 11 км 10/10 270 м
[]
+15.8 +14.1 90 1012.5 1012.1
23 12.07 11 км 10/10 270 м
[]
+15.8 +13.8 88 1012.9 1012.5
00 13.07 12 км {дождь} 10/10 200 м
[]
+15.7 +13.9 89 1013.0 1012.6
01 13.07 11 км 10/10 210 м
[]
+15.6 +14.0 90 1013.0 1012.6
02 13.07 5000 м дымка 9/9 120 м
[]
+14.9 +13.9 94 1013.2 1012.8
03 13.07 11 км в посл. час морось {дымка} 9/9 150 м
[]
+15.6 +14.4 93 1013.3 1012.9 0.0
04 13.07 18 км 10/10 180 м
[]
+15.5 +14.2 92 1013.7 1013.3
05 13.07 21 км 10/10 180 м
[]
+15.3 +13.8 91 1014.1 1013.7
06 13.07 24 км 10/10 200 м
[]
+14.9 +13.2 90 1014.6 1014.2 +14.9 +15.9 0.0
07 13.07 30 км 10/10 210 м
[]
+14.7 +13.0 90 1015.2 1014.8
08 13.07 29 км 10/10 270 м
[]
+14.7 +12.8 88 1015.8 1015.4
09 13.07 35 км 9/9 270 м
[]
+14.8 +12.4 86 1016.2 1015.8 0.0
10 13.07 35 км 10/10 300 м
[]
+14.7 +11.9 83 1016.6 1016.2
11 13.07 26 км 10/10 330 м
[]
+14.8 +11.7 82 1016.9 1016.5
12 13.07 30 км 10/10 450 м
[]
+14.8 +10.7 76 1017.2 1016.8
13 13.07 35 км 10/10 500 м
[]
+15.5 +10.2 71 1017.3 1016.9
14 13.07 40 км 3/3 570 м
[]
+16.4 +10.5 68 1017.3 1016.9
15 13.07 35 км 4/4 500 м
[]
+16.7 +11.2 70 1017.1 1016.7
16 13.07 28 км 10/10 420 м
[]
+15.0 +11.2 78 1017.1 1016.7
17 13.07 18 км слаб. морось 10/10 240 м
[]
+14.4 +12.1 86 1017.0 1016.6
18 13.07 28 км 9/9 300 м
[]
+14.5 +11.2 81 1017.4 1017.0 +14.1 +16.9 0.0
19 13.07 17 км слаб. морось 10/10 360 м
[]
+14.0 +11.2 83 1017.6 1017.2
20 13.07 35 км 10/10 720 м
[]
+14.5 +10.4 76 1017.9 1017.5
21 13.07 35 км 10/10 330 м
[]
+13.6 +11.7 88 1018.0 1017.6 0.0
22 13.07 24 км слаб. морось 9/9 210 м
[]
+13.4 +11.9 91 1018.1 1017.7
00 14.07 35 км 10/10 300 м
[]
+13.8 +9.4 75 1018.0 1017.6 0.0
02 14.07 35 км 10/10 500 м
[]
+13.9 +9.5 75 1017.7 1017.3
03 14.07 35 км 10/10 570 м
[]
+14.0 +9.6 75 1017.5 1017.1 0.0
04 14.07 40 км 10/10 540 м
[]
+13.9 +9.5 75 1017.6 1017.2
05 14.07 50 км 10/10 570 м
[]
+13.8 +9.0 73 1017.7 1017.3
06 14.07 45 км 10/10 300 м
[]
+13.9 +9.8 76 1017.8 1017.4 +13.0 +14.6 0.0
07 14.07 45 км 10/10 570 м
[]
+14.1 +9.3 73 1017.8 1017.4
08 14.07 30 км 10/10 570 м
[]
+14.4 +9.8 74 1018.2 1017.8
09 14.07 40 км 10/10 570 м
[]
+14.6 +9.6 72 1018.4 1018.0 0.0
10 14.07 29 км 10/10 570 м
[]
+15.0 +10.5 74 1018.7 1018.3
11 14.07 30 км 10/10 600 м
[]
+15.1 +10.5 74 1019.0 1018.6
12 14.07 24 км 10/10 540 м
[]
+14.4 +10.8 79 1018.9 1018.5 0.0
13 14.07 25 км 10/10 600 м
[]
+15.0 +10.3 73 1018.9 1018.5
14 14.07 30 км 10/10 540 м
[]
+14.8 +10.7 76 1018.9 1018.5
15 14.07 30 км 10/10 450 м
[]
+15.3 +10.5 73 1018.8 1018.4 0.0
16 14.07 24 км 10/10 500 м
[]
+14.7 +10.6 76 1018.8 1018.4
17 14.07 26 км 10/10 500 м
[]
+14.4 +10.2 76 1018.9 1018.5
18 14.07 30 км 10/10 300 м
[]
+14.1 +9.6 74 1018.8 1018.4 +13.7 +15.4
19 14.07 29 км 10/10 570 м
[]
+14.1 +9.5 74 1018.9 1018.5
20 14.07 30 км 10/10 480 м
[]
+14.1 +10.2 77 1018.9 1018.5
21 14.07 22 км 10/10 450 м
[]
+13.9 +10.5 80 1019.0 1018.6 0.0
22 14.07 30 км 10/10 500 м
[]
+13.7 +9.6 76 1019.0 1018.6
23 14.07 35 км 10/10 500 м
[]
+13.6 +9.5 76 1018.9 1018.5
00 15.07 30 км 10/10 300 м
[]
+13.6 +9.7 77 1018.9 1018.5 0.0
01 15.07 30 км 10/10 500 м
[]
+13.6 +9.6 77 1018.4 1018.0
02 15.07 35 км 10/10 500 м
[]
+13.5 +9.2 75 1018.2 1017.8
03 15.07 35 км 10/10 570 м
[]
+13.7 +8.9 73 1017.8 1017.4 0.0
04 15.07 40 км 10/10 600 м
[]
+13.4 +8.2 71 1017.8 1017.4
05 15.07 35 км 10/10 660 м
[]
+13.6 +8.6 72 1017.6 1017.2
06 15.07 35 км 10/10 600 м
[]
+13.6 +8.2 70 1017.7 1017.3 +13.4 +14.3 0.0
07 15.07 30 км 10/10 720 м
[]
+13.9 +8.3 69 1017.6 1017.2
08 15.07 35 км 10/10 700 м
[]
+13.8 +8.2 69 1017.7 1017.3
09 15.07 35 км 10/10 720 м
[]
+14.3 +8.1 66 1017.6 1017.2
10 15.07 25 км 10/10 600 м
[]
+14.4 +9.4 72 1017.7 1017.3
11 15.07 30 км 10/10 700 м
[]
+14.5 +8.9 69 1017.6 1017.2
12 15.07 30 км 10/10 720 м
[]
+14.7 +8.8 68 1017.7 1017.3
13 15.07 30 км 10/10 540 м
[]
+15.3 +10.3 72 1017.5 1017.1
14 15.07 27 км 9/9 540 м
[]
+15.6 +10.5 72 1017.3 1016.9
15 15.07 29 км 10/10 540 м
[]
+15.1 +10.4 73 1017.3 1016.9 0.0
16 15.07 27 км 10/10 540 м
[]
+14.8 +11.1 78 1017.1 1016.7
17 15.07 30 км 10/10 540 м
[]
+14.9 +10.9 77 1017.1 1016.7
18 15.07 28 км слаб. морось 10/10 300 м
[]
+14.8 +11.1 78 1017.0 1016.6 +13.6 +16.2 0.0
19 15.07 26 км 10/10 500 м
[]
+14.5 +11.2 81 1017.0 1016.6
20 15.07 29 км 9/9 500 м
[]
+14.5 +10.9 79 1017.2 1016.8
21 15.07 24 км 10/10 450 м
[]
+14.1 +10.9 81 1017.2 1016.8
22 15.07 35 км 10/10 360 м
[]
+14.0 +11.0 82 1016.9 1016.5
23 15.07 30 км 10/10 330 м
[]
+14.1 +11.4 84 1016.9 1016.5
00 16.07 17 км 10/10 300 м
[]
+13.8 +11.7 87 1016.7 1016.3 0.0
01 16.07 30 км в посл. час дождь со снегом {морось} 10/10 150 м
[]
+13.7 +12.3 91 1016.6 1016.2
02 16.07 8000 м слаб. морось 10/10 240 м
[]
+13.8 +12.3 91 1016.4 1016.0
03 16.07 28 км в посл. час дождь 10/10 210 м
[]
+13.9 +12.9 94 1015.9 1015.5 0.2
04 16.07 50 км в посл. час морось {дымка} 9/9 210 м
[]
+14.0 +12.6 91 1015.8 1015.4
05 16.07 45 км 10/10 240 м
[]
+14.2 +12.6 90 1015.6 1015.2
06 16.07 55 км в посл. час дождь {морось} 9/9 200 м
[]
+14.1 +12.8 92 1015.6 1015.2 +13.4 +14.9 0.3
07 16.07 65 км 9/9 270 м
[]
+14.1 +12.2 88 1015.9 1015.5
08 16.07 16 км в посл. час дождь со снегом {морось} 10/10 210 м
[]
+14.2 +12.8 91 1016.1 1015.7
09 16.07 55 км в посл. час дождь {морось} 10/10 240 м
[]
+14.8 +12.6 87 1016.2 1015.8 0.2
10 16.07 35 км 10/10 270 м
[]
+14.5 +12.0 85 1016.3 1015.9
11 16.07 40 км 10/10 360 м
[]
+15.2 +11.6 79 1016.4 1016.0
12 16.07 45 км 10/10 360 м
[]
+15.2 +11.2 77 1016.5 1016.1 0.0
13 16.07 40 км 10/10 360 м
[]
+15.0 +11.5 80 1016.7 1016.3
14 16.07 40 км 10/10 450 м
[]
+15.6 +11.3 76 1016.6 1016.2
15 16.07 30 км 10/10 400 м
[]
+15.3 +11.5 78 1016.8 1016.4
17 16.07 35 км 9/9 480 м
[]
+14.9 +10.4 74 1016.8 1016.4
18 16.07 30 км 9/9 300 м
[]
+14.5 +10.7 78 1016.7 1016.3 +13.8 +15.8
19 16.07 35 км 9/9 450 м
[]
+14.0 +10.0 77 1016.8 1016.4
20 16.07 30 км 9/9 480 м
[]
+13.9 +10.2 78 1017.0 1016.6
21 16.07 30 км 9/9 480 м
[]
+13.7 +10.2 79 1017.0 1016.6
22 16.07 30 км 9/9 500 м
[]
+13.8 +10.1 78 1017.0 1016.6
23 16.07 35 км 10/10 480 м
[]
+13.8 +10.0 78 1017.0 1016.6
00 17.07 29 км 10/10 300 м
[]
+13.8 +10.4 80 1017.0 1016.6
01 17.07 40 км 10/10 450 м
[]
+13.5 +9.9 79 1016.7 1016.3
02 17.07 40 км 10/10 450 м
[]
+13.4 +9.6 78 1016.4 1016.0
03 17.07 40 км 10/10 480 м
[]
+13.5 +9.9 79 1016.3 1015.9
04 17.07 35 км 10/10 480 м
[]
+13.6 +9.9 78 1016.2 1015.8
05 17.07 35 км 10/10 450 м
[]
+13.9 +10.3 79 1015.8 1015.4
06 17.07 40 км 10/10 300 м
[]
+14.4 +10.4 77 1015.9 1015.5 +13.4 +14.6
07 17.07 45 км 9/9 480 м
[]
+14.7 +10.7 77 1016.2 1015.8
08 17.07 40 км 9/9 500 м
[]
+16.0 +11.0 72 1016.1 1015.7
09 17.07 50 км 10/10 400 м
[]
+15.5 +11.3 76 1016.1 1015.7
10 17.07 50 км 10/10 360 м
[]
+15.5 +11.5 77 1016.1 1015.7
11 17.07 50 км 10/10 330 м
[]
+15.7 +12.0 79 1016.2 1015.8
12 17.07 50 км 10/10 300 м
[]
+15.7 +12.0 79 1016.2 1015.8
13 17.07 45 км 10/10 270 м
[]
+15.8 +11.9 78 1016.0 1015.6
14 17.07 50 км 10/10 270 м
[]
+16.9 +12.4 75 1015.8 1015.4
15 17.07 35 км 10/10 270 м
[]
+16.3 +13.2 82 1015.6 1015.2
16 17.07 23 км 10/10 330 м
[]
+15.7 +13.0 84 1015.3 1014.9
17 17.07 35 км 10/10 210 м
[]
+15.4 +12.7 84 1014.7 1014.3
18 17.07 50 км 10/10 200 м
[]
+15.6 +12.6 82 1014.6 1014.2 +14.3 +17.4
19 17.07 40 км 5/5 240 м
[]
+15.0 +12.5 85 1014.5 1014.1
21 17.07 50 км 10/10 210 м
[]
+14.4 +12.7 90 1014.3 1013.9
22 17.07 55 км 10/10 210 м
[]
+14.3 +12.4 88 1014.1 1013.7
23 17.07 50 км 4/4 180 м
[]
+14.5 +12.9 90 1013.9 1013.5
00 18.07 55 км ясно +14.6 +13.1 91 1013.8 1013.4
01 18.07 40 км 6/6 180 м
[]
+15.0 +13.7 92 1013.5 1013.1
02 18.07 50 км 3/3 210 м
[]
+15.2 +13.6 90 1013.0 1012.6
03 18.07 50 км 5/0
[]
+15.3 +13.8 91 1012.6 1012.2
05 18.07 35 км 9/0
[]
+15.8 +13.3 85 1012.4 1012.0
06 18.07 26 км 10/0
[]
+16.2 +13.6 85 1012.1 1011.7 +14.3 +16.2
07 18.07 22 км 8/0
[]
+16.5 +13.5 82 1011.9 1011.5
08 18.07 18 км 10/0
[]
+17.3 +13.9 80 1011.8 1011.4

 

Местоположение метеостанции Гельголанд (Германия): широта 54.18 долгота 7.90 высота над уровнем моря 4 м.

В архиве по умолчанию представлена погода в Гельголанде за последнюю неделю. Архивные данные за месяц целиком и за предыдущие месяцы, начиная с января 2011 года, Вы можете получить, выбрав интересующий диапазон дат из раскрывающегося списка и нажав кнопку "Ввод!".


*Определитесь, кто Вы:
робот инопланетянин человек

Внимание! Время в таблицах - всемирное. Для получения местного времени необходимо прибавить поправку, которая равна 1 ч.

Смотрите также архив погоды в соседних городах и на ближайших метеорологических станциях:

Погода на Станции Ufs Deutsche Bucht (Германия) (31 км)
Погода на Маяке Alte Weser (Германия) (38 км)
Погода в Санкт-Петер-Ординге (Германия) (48 км)
Погода в Куксхавене (Германия) (63 км)
Погода в Нордхольце (Германия) (68 км)
Погода на Острове Норденей (Германия) (71 км)
Погода на Базе ВВС Wittmundhaven (Германия) (72 км)
Погода в Эльперсбюттеле (Германия) (74 км)
Погода в Бремерхафене (Германия) (85 км)
Погода в Леке (Германия) (97 км)

Пояснения к столбцам:

Ветер - указаны скорость ветра в м/с - средняя за 10 мин, порывы в срок и между сроками (в фигурных скобках) и направление, откуда дует ветер: С - северный, СВ - северо-восточный, В - восточный, ЮВ - юго-восточный, Ю - южный, ЮЗ - юго-западный, З - западный, СЗ - северо-западный.
Видимость - горизонтальная дальность видимости в метрах или километрах. При видимости от 1 до 10 км при отсутствии осадков обычно наблюдается дымка, при ухудшении видимости до 1 км и менее - туман. В сухую погоду видимость может ухудшаться дымом, пылью или мглою.
Явления - указаны атмосферные явления, наблюдавшиеся в срок или в последний час перед сроком; фигурными скобками обозначены явления, наблюдавшиеся между сроками (за 1-3 часа до срока); квадратными скобками обозначены град или гололедные отложения с указанием их диаметра в мм.
Облачность - указаны через наклонную черту общая и нижняя облачность в баллах и высота нижней границы облаков в метрах; квадратными скобками обозначены формы облаков: Ci - перистые, Cs - перисто-слоистые, Cc - перисто-кучевые, Ac - высококучевые, As - высокослоистые, Sc - слоисто-кучевые, Ns - слоисто-дождевые, Cu - кучевые, Cb - кучево-дождевые. Подробнее классификацию облаков см. в Атласе облаков (PDF).
T - Температура воздуха - температура, измеренная на высоте 2 м над землей.
Td - Температура точки росы - температура, при понижении до которой содержащийся в воздухе водяной пар достигнет насыщения.
f - Относительная влажность воздуха - влажноcть воздуха, измеренная на высоте 2 м над землей.
Te - Эффективная температура - температура, которую ощущает одетый по сезону человек в тени. Характеристика душности погоды. При расчете учитывается влияние влажности воздуха и скорости ветра на теплоощущения человека.
Tes - Эффективная температура на солнце - температура, которую ощущает человек, с поправкой на солнечный нагрев. Характеристика знойности погоды. Зависит от высоты солнца над горизонтом, облачности и скорости ветра. Ночью, в пасмурную погоду, а также при ветре 12 м/с и более поправка равна нулю.
P - Атмосферное давление - приведенное к уровню моря атмосферное давление.
Po - Атмосферное давление - измеренное на уровне метеостанции атмосферное давление.
Tmin - Минимальная температура - минимум температуры воздуха на высоте 2 м над землей.
Tmax - Максимальная температура - максимум температуры воздуха на высоте 2 м над землей.
R - Количество осадков - Количество выпавших осадков за период времени, мм. При наведении курсора мыши на число - период времени, за который выпало указанное количество осадков.
R24 - Количество осадков - Количество выпавших осадков за 24 часа, мм.
S - Снежный покров - Высота снежного покрова, см. При наведении курсора мыши на число - состояние снежного покрова и степень покрытия местности в баллах.